"Pseudo-MPEC" for P11JSv9

Created 2023 Sep 20 10:22:31 UT using Find_Orb

Click here for an explanation of pseudo-MPECs

 
 Astrometry: 
     P11JSv9  C2023 09 142np^$fJBckLQlCkv,dLyvcmbwAstrometrys1Ybx'X6.]VXY?#+JF51
     P11JSv9  C2023 09 14o#n:y$LS5F3s'F\YMno5+LGdEJIpsLd37RqkAq-.kiT'H(u='DeEF51
     P11JSv9  C2023 09 14iio_cu#v!Ah-8YOdA7U0l6Xt1Pklt08da#=6'9lH[y;;(%\@4l2JF51
     P11JSv9  C2023 09 14$`5U+\ON9p5=g%xZqFKaWSfmMT__$cynr+PH!$;Km28L0rDW4IrEF51
     P11JSv9* C2023 09 1898PmQiLoitgNJ5)(+Tu=FGNrEredacted;_anW,KpyUPDDEggohVF51
     P11JSv9  C2023 09 18xJa,EYRFa%FFf:WL?(KtFsj!`bB0*y.T:oysGyZEZl:8?Y@j.@F'F51
     P11JSv9  C2023 09 18dgLDwVw`0lUceVb]bZ)VL5lGwfG$PIFHwXy]hkl+1Ine`0yCfLFUF51
     P11JSv9  C2023 09 18rmS_:15W8@UJ?l91_DvbclicklaHV`Evfk,_89xSJ3K(%k7P0)CuF52
     P11JSv9  C2023 09 18hAqPh2RxMxu9C[R\t*iD:w+here=';G$kiFb@hOL@$ooHP^J,MI$F52
     P11JSv9 KC2023 09 19.26101123 36 55.220-04 43 10.74   ~9J6q 21.72GVNEOCPI52
     P11JSv9 KC2023 09 19.26349723 36 55.804-04 42 57.24   ~9J6q 21.25GVNEOCPI52
     P11JSv9 KC2023 09 19.26598923 36 56.383-04 42 43.67   ~9J6q 21.13GVNEOCPI52
     P11JSv9 KC2023 09 19.26848523 36 56.981-04 42 29.99   ~9J6q 20.66GVNEOCPI52
     P11JSv9  C2023 09 19g)L!]gHbXkbu1*$8forJZ@)dp+ulOxpp'LB\dd^LBPhq;rOSB/pmF51
     P11JSv9  C2023 09 1943x7bD@`o7AuY$_Cb1@lSk.KuaH*1dQFQ*79NWSCHO?\S$YojybCF51
     P11JSv9 1C2023 09 19.93502 23 40 25.02 -03 38 22.5    ~9JNM 21.5 VXNEOCP033
     P11JSv9 1C2023 09 19.93710 23 40 25.58 -03 38 09.3    ~9JNM 20.9 VXNEOCP033
     P11JSv9 1C2023 09 19.93918 23 40 26.16 -03 37 56.2    ~9JNM 21.0 VXNEOCP033
     P11JSv9 KC2023 09 20EpI@1q$C5VCg`Zhk4fnc+Ppc/e-c'+bQT\=K:``J)'d=bSbv?V_$H21
     P11JSv9 KC2023 09 20`/gpNu30ZOa41$9KSvG[`Cm's27explanation26xAXHo-5%gdAUH21

Station data:
(033) Karl Schwarzschild Observatory, Tautenburg  (N50.980137 E11.711240)
   Germany.  Observer B. Stecklum. 1.34-m f/3 Schmidt + CCD.
(F51) Pan-STARRS 1, Haleakala  (N20.707234 W156.255910)  US/Hawaii.
   Observers J. Bulger, T. Lowe, A. Schultz, M. Willman. Measurers K.
   Chambers, S. Chastel, T. de Boer, L. Denneau, J. Fairlamb, H. Flewelling,
   M. Huber, C.-C. Lin, E. Magnier, Y. Ramanjooloo, R. Wainscoat, R. Weryk.
   1.8-m Ritchey-Chrétien + CCD.
(F52) Pan-STARRS 2, Haleakala  (N20.707382 W156.255910)  US/Hawaii.
   Observers J. Bulger, T. Dukes, T. Lowe, A. Schultz, M. Willman. Measurers
   K. Chambers, S. Chastel, T. de Boer, L. Denneau, J. Fairlamb, H.
   Flewelling, M. Huber, C.-C. Lin, E. Magnier, Y. Ramanjooloo, R. Wainscoat,
   R. Weryk. 1.8-m Ritchey-Chrétien + CCD.
(H21) Astronomical Research Observatory, Westfield  (N39.483054 W87.968270)
   US/Illinois.  Observer R. Holmes. Measurers S. Foglia, L. Buzzi, T.
   Linder, R. Holmes. 0.76-m f/3.0 astrograph + CCD0.81-m f/4.0 astrograph +
   CCD0.61-m f/4.5 astrograph + CCD0.40-m f/5.32 astrograph + CCD.
(I52) Steward Observatory, Mt. Lemmon Station  (N32.442544 W110.788920)
   US/Arizona.  Observers T. A. Pruyne, B. M. Africano, E. J. Christensen, G.
   A. Farneth, D. C. Fuls, A. R. Gibbs, A. D. Grauer, H. Gröller, J. A.
   Johnson, R. A. Kowalski, S. M. Larson, G. J. Leonard, D. Rankin, R. L.
   Seaman, F. C. Shelly, K. W. Wierzchoś. 1.0-m prime focus + CCD.

Orbital elements:  P11JSv9
   Perihelion 2023 Oct 31.49815 +/- 0.0196 TT = 11:57:20 (JD 2460248.99815)
Epoch 2023 Sep 20.0 TT = JDT 2460207.5   Earth MOID: 0.0100   Ma: 0.0050
M 344.00004100 +/- 0.06             (J2000 ecliptic)             AutoNEOCP
n   0.38555836 +/- 0.00149          Peri.   50.44935 +/- 0.0011
a   1.86957387 +/- 0.00481          Node   357.48456 +/- 0.00006
e   0.5066657 +/- 0.00134           Incl.    3.24476 +/- 0.006
P   2.56/933.69d           H 27.34  G  0.15   U  8.4
q 0.92232483 +/- 0.000127    Q 2.81682290 +/- 0.00974
From 20 observations 2023 Sept. 14-20; mean residual 0".20
Residuals in arcseconds: 
230914 F51  .18+  .15+    230918 F52  .01-  .06+    230919 F51  .29+  .20+    
230914 F51  .04-  .10-    230918 F52  .01+  .25+    230919 033  .72+  .24-    
230914 F51  .02-  .08+    230919 I52  .16+  .05-    230919 033  .03+  .01-    
230914 F51  .07-  .15-    230919 I52  .03+  .01-    230919 033  .36-  .10+    
230918 F51  .16-  .15-    230919 I52  .19-  .05+    230920 H21  .34-  .20+    
230918 F51  .00   .12-    230919 I52  .14-  .20+    230920 H21  .35-  .15-    
230918 F51  .10-  .10-    230919 F51  .02+  .26-    

Ephemerides (geocentric):
Date (UTC) HH   RA             Dec           delta  r     elong  mag " sig PA
---- --------  ------------   ------------  ------ ------ -----  --- --------
2023 09 20 10  23 43 13.764   -02 43 11.70  .05009 1.0545 178.0 21.2 .267 177
2023 09 20 11  23 43 29.303   -02 38 20.84  .04986 1.0542 178.1 21.2 .270 178
2023 09 20 12  23 43 44.986   -02 33 27.27  .04963 1.0540 178.2 21.2 .273 178
2023 09 20 13  23 44 00.813   -02 28 30.94  .04940 1.0538 178.2 21.1 .277 178
2023 09 20 14  23 44 16.788   -02 23 31.82  .04917 1.0535 178.3 21.1 .281 179
2023 09 20 15  23 44 32.911   -02 18 29.88  .04894 1.0533 178.4 21.1 .284 179
2023 09 20 16  23 44 49.184   -02 13 25.07  .04871 1.0530 178.4 21.1 .288 179
2023 09 20 17  23 45 05.611   -02 08 17.36  .04848 1.0528 178.5 21.1 .292   0
2023 09 20 18  23 45 22.192   -02 03 06.72  .04826 1.0526 178.6 21.1 .295   0
2023 09 20 19  23 45 38.931   -01 57 53.10  .04803 1.0523 178.6 21.0 .299   0
2023 09 20 20  23 45 55.828   -01 52 36.46  .04780 1.0521 178.7 21.0 .303   1
2023 09 20 21  23 46 12.887   -01 47 16.77  .04757 1.0519 178.8 21.0 .307   1
2023 09 20 22  23 46 30.109   -01 41 53.99  .04734 1.0516 178.8 21.0 .312   1
2023 09 20 23  23 46 47.497   -01 36 28.07  .04712 1.0514 178.9 21.0 .316   2
2023 09 21 00  23 47 05.053   -01 30 58.97  .04689 1.0511 179.0 21.0 .320   2
2023 09 21 01  23 47 22.779   -01 25 26.66  .04666 1.0509 179.1 20.9 .325   2
2023 09 21 02  23 47 40.678   -01 19 51.08  .04644 1.0507 179.1 20.9 .329   3
2023 09 21 03  23 47 58.752   -01 14 12.20  .04621 1.0504 179.2 20.9 .333   3
2023 09 21 04  23 48 17.003   -01 08 29.96  .04598 1.0502 179.2 20.9 .338   3
2023 09 21 05  23 48 35.435   -01 02 44.33  .04576 1.0500 179.3 20.9 .343   4
2023 09 21 06  23 48 54.049   -00 56 55.26  .04553 1.0497 179.3 20.9 .348   4
2023 09 21 07  23 49 12.848   -00 51 02.71  .04531 1.0495 179.4 20.8 .352   4
2023 09 21 08  23 49 31.835   -00 45 06.62  .04508 1.0492 179.4 20.8 .357   5
2023 09 21 09  23 49 51.013   -00 39 06.94  .04486 1.0490 179.4 20.8 .363   5
2023 09 21 10  23 50 10.384   -00 33 03.64  .04463 1.0488 179.4 20.8 .368   5
2023 09 21 11  23 50 29.951   -00 26 56.65  .04441 1.0485 179.4 20.8 .373   6
2023 09 21 12  23 50 49.717   -00 20 45.93  .04418 1.0483 179.4 20.8 .378   6
2023 09 21 13  23 51 09.685   -00 14 31.43  .04396 1.0481 179.3 20.8 .384   6
2023 09 21 14  23 51 29.858   -00 08 13.09  .04374 1.0478 179.3 20.8 .389   7
2023 09 21 15  23 51 50.238   -00 01 50.87  .04351 1.0476 179.2 20.8 .395   7
2023 09 21 16  23 52 10.830   +00 04 35.30  .04329 1.0474 179.1 20.8 .401   7
2023 09 21 17  23 52 31.635   +00 11 05.46  .04307 1.0471 179.1 20.8 .406   8
2023 09 21 18  23 52 52.657   +00 17 39.67  .04284 1.0469 179.0 20.8 .412   8
2023 09 21 19  23 53 13.900   +00 24 17.99  .04262 1.0466 178.9 20.8 .418   8
2023 09 21 20  23 53 35.367   +00 31 00.48  .04240 1.0464 178.8 20.7 .425   9
2023 09 21 21  23 53 57.061   +00 37 47.19  .04218 1.0462 178.7 20.7 .431   9
2023 09 21 22  23 54 18.985   +00 44 38.19  .04196 1.0459 178.6 20.7 .437   9
2023 09 21 23  23 54 41.143   +00 51 33.53  .04174 1.0457 178.5 20.7 .444  10
2023 09 22 00  23 55 03.539   +00 58 33.27  .04152 1.0455 178.4 20.7 .451  10
2023 09 22 01  23 55 26.177   +01 05 37.49  .04130 1.0452 178.3 20.7 .457  10
2023 09 22 02  23 55 49.059   +01 12 46.23  .04108 1.0450 178.2 20.7 .464  11
2023 09 22 03  23 56 12.190   +01 19 59.57  .04086 1.0448 178.0 20.7 .471  11
2023 09 22 04  23 56 35.574   +01 27 17.57  .04064 1.0445 177.9 20.7 .478  11
2023 09 22 05  23 56 59.215   +01 34 40.29  .04042 1.0443 177.8 20.7 .486  12
2023 09 22 06  23 57 23.116   +01 42 07.81  .04020 1.0441 177.7 20.7 .493  12
2023 09 22 07  23 57 47.282   +01 49 40.20  .03998 1.0438 177.6 20.7 .501  12
2023 09 22 08  23 58 11.717   +01 57 17.51  .03977 1.0436 177.4 20.7 .508  12
2023 09 22 09  23 58 36.425   +02 04 59.83  .03955 1.0434 177.3 20.7 .516  13